Location: Newark
(40.2531°N, 0.7525°W)
Time: 17:35:07
(UTC+00:00)

Hubble Space Telescope - Pass Details

Date: 26 March 2019
Orbit: 536 x 540 km, 28.5° (Epoch: 20 October)

Event Time Altitude Azimuth Distance (km) Brightness Sun altitude
Rises 19:52:22 0° 232° (SW) 2,673 4.8 -17.9°
Reaches altitude 10° 19:55:27 10° 208° (SSW) 1,784 3.5 -18.4°
Enters shadow 19:57:22 15° 180° (S) 1,518 2.9 -18.8°
